This demonstration page uses our WeatherBlox Daily Observations layout. Learn more.

Left ArrowRight Arrow

39.01783, -85.05884

Hourly Observations for February 9, 2016

Temp ( °F °C ) Dew Point ( °F °C ) Humidity (%) Winds ( mph kmh ) Pressure ( in mb ) Visibility ( mi km ) Precip ( " mm )
12:34 am 00:34 Cloudy with Light Snow 21 -6 18 -8 86 86 W 14 22 29.80 1009 7 11 0.00 0.00
12:52 am 00:52 Cloudy with Light Snow 22 -5.6 17 -8.3 82 82 W 15 24 29.74 1007 9 14 0.00 0.03
1:52 am 01:52 Cloudy with Light Snow 21 -6.1 16 -8.9 81 81 W 12 19 29.74 1007 8 13 0.00 0.03
2:52 am 02:52 Cloudy with Light Snow 21 -6.1 15 -9.4 78 78 W 14 22 29.73 1007 7 11 0.00 0.03
3:52 am 03:52 Cloudy with Light Snow 21 -6.1 16 -8.9 81 81 WSW 10 17 29.72 1007 3 5 0.00 0.03
4:52 am 04:52 Cloudy with Light Snow 21 -6.1 16 -8.9 81 81 WSW 7 11 29.73 1007 5 8 0.00 0.03
5:09 am 05:09 Cloudy with Light Snow 21 -6 18 -8 86 86 SW 8 13 29.77 1008 3 4 0.00 0.03
5:24 am 05:24 Cloudy with Light Snow 19 -7 18 -8 93 93 WSW 7 11 29.77 1008 2 3 0.00 0.00
5:52 am 05:52 Cloudy with Light Snow 20 -6.7 17 -8.3 89 89 WSW 8 13 29.74 1007 2 3 0.01 0.25
6:52 am 06:52 Cloudy with Light Snow 20 -6.7 17 -8.3 89 89 WSW 7 11 29.75 1008 2 3 0.01 0.25
7:09 am 07:09 Cloudy with Light Snow 19 -7 18 -8 93 93 WSW 6 9 29.80 1009 2 3 0.00 0.03
7:30 am 07:30 Mostly Cloudy with Light Snow 19 -7 16 -9 86 86 WSW 7 11 29.80 1009 2 3 0.00 0.00
7:52 am 07:52 Mostly Cloudy with Mist and Fog 19 -7.2 16 -8.9 88 88 WSW 8 13 29.77 1008 5 8 0.00 0.03
8:30 am 08:30 Mostly Cloudy with Light Snow 19 -7 16 -9 86 86 WSW 7 11 29.80 1009 3 5 0.00 0.03
8:52 am 08:52 Cloudy with Light Snow 20 -6.7 17 -8.3 89 89 WSW 7 11 29.78 1009 4 6 0.00 0.03
9:03 am 09:03 Cloudy with Light Snow 21 -6 18 -8 86 86 WSW 9 15 29.83 1010 3 5 0.00 0.00
9:12 am 09:12 Cloudy with Light Snow 21 -6 18 -8 86 86 WSW 13 20 29.83 1010 3 4 0.00 0.00
9:44 am 09:44 Cloudy with Light Snow 21 -6 16 -9 80 80 WSW 9 15 29.83 1010 3 5 0.00 0.03
9:52 am 09:52 Cloudy with Light Snow 22 -5.6 17 -8.3 82 82 WSW 9 15 29.79 1009 3 5 0.00 0.03
10:31 am 10:31 Cloudy with Light Snow 21 -6 18 -8 86 86 WSW 13 20 29.83 1010 3 5 0.00 0.03
10:52 am 10:52 Cloudy with Light Snow 22 -5.6 17 -8.3 82 82 W 10 17 29.79 1009 2 3 0.00 0.03
11:52 am 11:52 Cloudy with Light Snow 23 -5 17 -8.3 78 78 W 10 17 29.80 1009 2 3 0.00 0.03
12:52 pm 12:52 Cloudy with Light Snow 23 -5 16 -8.9 74 74 WSW 15 24 29.79 1009 3 5 0.00 0.03
1:50 pm 13:50 Cloudy with Light Snow 23 -5 18 -8 80 80 W 13 20 29.83 1010 2 3 0.00 0.00
1:52 pm 13:52 Cloudy with Light Snow 23 -5 17 -8.3 78 78 W 16 26 29.79 1009 2 3 0.00 0.03
2:15 pm 14:15 Cloudy with Light Snow 25 -4 18 -8 74 74 W 14 22 29.83 1010 4 6 0.00 0.03
2:47 pm 14:47 Cloudy with Light Snow 24 -4.4 17 -8.3 75 75 WSW 10 17 29.80 1009 3 5 0.00 0.03
2:58 pm 14:58 Cloudy with Light Snow 23 -5 18 -8 80 80 W 14 22 29.83 1010 2 3 0.00 0.00
3:52 pm 15:52 Cloudy with Light Snow 23 -5 18 -7.8 81 81 W 15 24 29.81 1010 2 3 0.00 0.03
4:52 pm 16:52 Cloudy with Haze 24 -4.4 16 -8.9 71 71 W 13 20 29.85 1011 3 5 0.00 0.03
5:52 pm 17:52 Cloudy with Light Snow 23 -5 18 -7.8 81 81 W 13 20 29.88 1012 2 3 0.00 0.03
6:29 pm 18:29 Cloudy with Light Snow 21 -6 18 -8 86 86 W 9 15 29.94 1014 2 3 0.00 0.03
6:52 pm 18:52 Cloudy with Light Snow 22 -5.6 18 -7.8 85 85 W 10 17 29.91 1013 3 4 0.00 0.03
7:10 pm 19:10 Cloudy with Light Snow 21 -6 18 -8 86 86 W 14 22 29.94 1014 3 5 0.00 0.03
7:52 pm 19:52 Cloudy with Light Snow 22 -5.6 16 -8.9 78 78 W 16 26 29.92 1013 6 10 0.00 0.03
8:52 pm 20:52 Cloudy 20 -6.7 13 -10.6 74 74 W 17 28 29.93 1014 10 16 0.00 0.03
9:29 pm 21:29 Windy with Snow Likely 19 -7 12 -11 73 73 W 21 33 29.97 1015 6 10 0.00 0.03
9:52 pm 21:52 Cloudy 19 -7.2 12 -11.1 74 74 W 15 24 29.94 1014 10 16 0.00 0.03
10:52 pm 22:52 Partly Cloudy 17 -8.3 9 -12.8 70 70 WNW 16 26 29.96 1014 10 16 0.00 0.00
11:52 pm 23:52 Mostly Cloudy with Light Snow 16 -8.9 10 -12.2 77 77 W 8 13 29.96 1015 9 14 0.01 0.25

Powered by AerisWeather